AXM5747 WBKW-WMKK

Flight info

Callsign AXM5747
Flight time N/A
Altitude 34000
Route TAWA1A VTW W441 LATIL W453 BRU M759 OLKIT M758 IDSEL Y335 PADLI Y343 SAROX SAROX1H
Aircraft A320/M-SDE3FGHIRWY/LB1

Departure

Time N/A
Airport Tawau Airport (WBKW)

Arrival

Time 2026-05-05 14:56
Airport Kuala Lumpur International Airport (WMKK)
Time Latitude Longitude Altitude Speed Heading
2026-05-05 13:33 4.61004 110.96588 33886 ft 464 kts 255°
2026-05-05 13:33 4.59411 110.90322 33888 ft 464 kts 255°
2026-05-05 13:34 4.57817 110.84061 33886 ft 463 kts 255°
2026-05-05 13:34 4.56219 110.77800 33887 ft 463 kts 255°
2026-05-05 13:35 4.54614 110.71547 33882 ft 463 kts 255°
2026-05-05 13:35 4.53017 110.65291 33885 ft 463 kts 255°
2026-05-05 13:36 4.51420 110.59044 33886 ft 463 kts 255°
2026-05-05 13:36 4.49818 110.52785 33884 ft 462 kts 255°
2026-05-05 13:37 4.48231 110.46576 33884 ft 462 kts 255°
2026-05-05 13:37 4.46633 110.40321 33884 ft 462 kts 255°
2026-05-05 13:38 4.45034 110.34079 33883 ft 462 kts 255°
2026-05-05 13:38 4.43438 110.27832 33885 ft 462 kts 255°
2026-05-05 13:39 4.41842 110.21594 33887 ft 462 kts 255°
2026-05-05 13:39 4.40250 110.15399 33886 ft 462 kts 255°
2026-05-05 13:40 4.38651 110.09162 33891 ft 462 kts 255°
2026-05-05 13:40 4.37041 110.02886 33893 ft 462 kts 255°
2026-05-05 13:41 4.35450 109.96647 33892 ft 462 kts 255°
2026-05-05 13:41 4.33862 109.90457 33892 ft 462 kts 255°
2026-05-05 13:42 4.32264 109.84232 33893 ft 461 kts 255°
2026-05-05 13:42 4.30667 109.78008 33888 ft 461 kts 255°
2026-05-05 13:43 4.29067 109.71794 33888 ft 461 kts 255°
2026-05-05 13:43 4.27471 109.65582 33886 ft 460 kts 255°
2026-05-05 13:44 4.25877 109.59367 33886 ft 460 kts 255°
2026-05-05 13:44 4.24277 109.53164 33885 ft 460 kts 255°
2026-05-05 13:45 4.22657 109.46963 33879 ft 460 kts 255°
2026-05-05 13:45 4.21033 109.40767 33881 ft 460 kts 255°
2026-05-05 13:46 4.19404 109.34567 33879 ft 460 kts 255°
2026-05-05 13:46 4.17785 109.28366 33882 ft 460 kts 255°
2026-05-05 13:47 4.16174 109.22200 33883 ft 460 kts 255°
2026-05-05 13:47 4.14549 109.15994 33882 ft 460 kts 255°
2026-05-05 13:48 4.12928 109.09781 33890 ft 460 kts 255°
2026-05-05 13:48 4.11300 109.03566 33886 ft 461 kts 255°
2026-05-05 13:49 4.09678 108.97400 33882 ft 461 kts 255°
2026-05-05 13:49 4.08051 108.91168 33886 ft 461 kts 255°
2026-05-05 13:50 4.06427 108.84957 33887 ft 461 kts 255°
2026-05-05 13:50 4.04802 108.78782 33880 ft 461 kts 255°
2026-05-05 13:51 4.03164 108.72561 33883 ft 461 kts 255°
2026-05-05 13:51 4.01534 108.66346 33883 ft 461 kts 255°
2026-05-05 13:52 3.99921 108.60123 33884 ft 462 kts 255°
2026-05-05 13:52 3.98306 108.53896 33885 ft 462 kts 255°
2026-05-05 13:53 3.96692 108.47695 33893 ft 462 kts 255°
2026-05-05 13:53 3.95070 108.41464 33890 ft 463 kts 255°
2026-05-05 13:54 3.93447 108.35225 33894 ft 463 kts 255°
2026-05-05 13:54 3.91814 108.28988 33892 ft 463 kts 255°
2026-05-05 13:55 3.90182 108.22749 33895 ft 463 kts 255°
2026-05-05 13:55 3.88555 108.16505 33897 ft 463 kts 255°
2026-05-05 13:56 3.86944 108.10310 33901 ft 463 kts 255°
2026-05-05 13:56 3.85322 108.04060 33899 ft 463 kts 255°
2026-05-05 13:57 3.83691 107.97818 33902 ft 463 kts 255°
2026-05-05 13:57 3.82058 107.91575 33896 ft 463 kts 255°
2026-05-05 13:58 3.80427 107.85339 33899 ft 463 kts 255°
2026-05-05 13:58 3.78790 107.79101 33893 ft 463 kts 255°
2026-05-05 13:59 3.76623 107.70798 33903 ft 463 kts 255°
2026-05-05 14:00 3.74175 107.61421 33909 ft 463 kts 255°
2026-05-05 14:00 3.72547 107.55220 33907 ft 463 kts 255°
2026-05-05 14:01 3.70912 107.48985 33905 ft 463 kts 255°
2026-05-05 14:01 3.69280 107.42741 33907 ft 463 kts 255°
2026-05-05 14:02 3.67649 107.36502 33914 ft 463 kts 255°
2026-05-05 14:02 3.66012 107.30267 33909 ft 463 kts 254°
2026-05-05 14:03 3.64375 107.24022 33908 ft 463 kts 255°
2026-05-05 14:03 3.62755 107.17829 33919 ft 463 kts 255°
2026-05-05 14:04 3.61120 107.11596 33907 ft 463 kts 255°
2026-05-05 14:04 3.59487 107.05367 33916 ft 463 kts 255°
2026-05-05 14:05 3.57853 106.99132 33920 ft 463 kts 255°
2026-05-05 14:05 3.56292 106.92881 33915 ft 463 kts 260°
2026-05-05 14:06 3.55822 106.86452 33914 ft 463 kts 266°
2026-05-05 14:06 3.55490 106.80009 33911 ft 463 kts 266°
2026-05-05 14:07 3.55161 106.73563 33913 ft 463 kts 266°
2026-05-05 14:07 3.54834 106.67121 33914 ft 463 kts 266°
2026-05-05 14:08 3.54500 106.60684 33917 ft 463 kts 266°
2026-05-05 14:08 3.54161 106.54244 33917 ft 463 kts 266°
2026-05-05 14:09 3.53825 106.47809 33905 ft 463 kts 266°
2026-05-05 14:09 3.53500 106.41416 33909 ft 463 kts 266°
2026-05-05 14:10 3.53165 106.34985 33914 ft 462 kts 266°
2026-05-05 14:10 3.52831 106.28557 33907 ft 462 kts 266°
2026-05-05 14:11 3.52516 106.22128 33911 ft 462 kts 266°
2026-05-05 14:11 3.52193 106.15709 33911 ft 462 kts 266°
2026-05-05 14:12 3.51861 106.09292 33912 ft 462 kts 266°
2026-05-05 14:12 3.51529 106.02875 33911 ft 461 kts 266°
2026-05-05 14:13 3.51200 105.96457 33909 ft 461 kts 266°
2026-05-05 14:13 3.50877 105.90045 33909 ft 461 kts 266°
2026-05-05 14:14 3.50552 105.83634 33905 ft 461 kts 266°
2026-05-05 14:14 3.50222 105.77220 33902 ft 461 kts 266°
2026-05-05 14:15 3.49892 105.70807 33903 ft 461 kts 266°
2026-05-05 14:15 3.49573 105.64399 33901 ft 461 kts 266°
2026-05-05 14:16 3.49261 105.58033 33895 ft 461 kts 266°
2026-05-05 14:16 3.48938 105.51625 33903 ft 461 kts 266°
2026-05-05 14:17 3.48612 105.45223 33896 ft 461 kts 266°
2026-05-05 14:17 3.48291 105.38810 33891 ft 461 kts 266°
2026-05-05 14:18 3.47967 105.32402 33889 ft 460 kts 266°
2026-05-05 14:18 3.47635 105.26006 33893 ft 460 kts 266°
2026-05-05 14:19 3.47313 105.19611 33894 ft 460 kts 266°
2026-05-05 14:19 3.46996 105.13212 33895 ft 460 kts 266°
2026-05-05 14:20 3.46675 105.06818 33894 ft 460 kts 266°
2026-05-05 14:20 3.46349 105.00468 33887 ft 459 kts 266°
2026-05-05 14:21 3.46017 104.94087 33893 ft 459 kts 266°
2026-05-05 14:21 3.45682 104.87701 33887 ft 459 kts 266°
2026-05-05 14:22 3.45358 104.81326 33886 ft 459 kts 266°
2026-05-05 14:22 3.45036 104.74948 33880 ft 459 kts 266°
2026-05-05 14:23 3.44715 104.68575 33887 ft 459 kts 266°
2026-05-05 14:23 3.44394 104.62198 33887 ft 459 kts 266°
2026-05-05 14:24 3.44063 104.55815 33887 ft 459 kts 266°
2026-05-05 14:24 3.43728 104.49428 33893 ft 459 kts 266°
2026-05-05 14:25 3.43404 104.43043 33895 ft 459 kts 266°
2026-05-05 14:25 3.43086 104.36658 33893 ft 459 kts 266°
2026-05-05 14:26 3.42765 104.30273 33889 ft 459 kts 266°
2026-05-05 14:26 3.42445 104.23895 33885 ft 459 kts 266°
2026-05-05 14:27 3.42126 104.17514 33885 ft 459 kts 266°
2026-05-05 14:27 3.41799 104.11129 33885 ft 459 kts 266°
2026-05-05 14:28 3.41475 104.04749 33886 ft 459 kts 266°
2026-05-05 14:28 3.41160 103.98365 33886 ft 460 kts 266°
2026-05-05 14:29 3.39954 103.92128 33881 ft 457 kts 248°
2026-05-05 14:29 3.36928 103.86613 33879 ft 455 kts 236°
2026-05-05 14:30 3.33524 103.81250 33871 ft 455 kts 237°
2026-05-05 14:30 3.30157 103.75885 33867 ft 455 kts 237°
2026-05-05 14:31 3.26783 103.70508 33866 ft 456 kts 237°
2026-05-05 14:31 3.23409 103.65144 33866 ft 456 kts 237°
2026-05-05 14:32 3.20053 103.59811 33869 ft 455 kts 237°
2026-05-05 14:32 3.16668 103.54447 33867 ft 455 kts 236°
2026-05-05 14:33 3.13899 103.48750 33860 ft 457 kts 246°
2026-05-05 14:33 3.11475 103.42870 33864 ft 457 kts 246°
2026-05-05 14:34 3.09034 103.36998 33867 ft 457 kts 246°
2026-05-05 14:34 3.06596 103.31127 33867 ft 457 kts 246°
2026-05-05 14:35 3.04190 103.25322 33871 ft 461 kts 246°
2026-05-05 14:35 3.01723 103.19372 33330 ft 457 kts 246°
2026-05-05 14:36 3.00514 103.16454 32801 ft 453 kts 246°
2026-05-05 14:36 2.99312 103.13557 32278 ft 449 kts 246°
2026-05-05 14:36 2.98119 103.10677 31768 ft 446 kts 246°
2026-05-05 14:36 2.96936 103.07824 31181 ft 440 kts 246°
2026-05-05 14:37 2.95761 103.04996 30522 ft 441 kts 246°
2026-05-05 14:37 2.94586 103.02177 30072 ft 437 kts 246°
2026-05-05 14:37 2.93425 102.99381 29549 ft 434 kts 246°
2026-05-05 14:37 2.92268 102.96586 28602 ft 440 kts 246°
2026-05-05 14:38 2.91095 102.93752 28023 ft 435 kts 246°
2026-05-05 14:38 2.89953 102.91001 27409 ft 422 kts 246°
2026-05-05 14:38 2.88836 102.88313 26648 ft 415 kts 246°
2026-05-05 14:38 2.87736 102.85663 25878 ft 410 kts 246°
2026-05-05 14:39 2.86648 102.83046 25104 ft 405 kts 246°
2026-05-05 14:39 2.85574 102.80460 24362 ft 400 kts 247°
2026-05-05 14:39 2.84526 102.77934 23643 ft 396 kts 247°
2026-05-05 14:39 2.83472 102.75400 22847 ft 394 kts 247°
2026-05-05 14:40 2.82419 102.72875 22398 ft 391 kts 246°
2026-05-05 14:40 2.81374 102.70370 21960 ft 389 kts 246°
2026-05-05 14:40 2.80338 102.67886 21519 ft 385 kts 246°
2026-05-05 14:40 2.79305 102.65433 20833 ft 380 kts 246°
2026-05-05 14:41 2.78279 102.63011 20113 ft 377 kts 246°
2026-05-05 14:41 2.77251 102.60596 19430 ft 379 kts 246°
2026-05-05 14:41 2.76209 102.58150 18756 ft 386 kts 246°
2026-05-05 14:41 2.75151 102.55662 18081 ft 392 kts 246°
2026-05-05 14:42 2.74077 102.53137 17434 ft 394 kts 246°
2026-05-05 14:42 2.73042 102.50697 17214 ft 371 kts 246°
2026-05-05 14:42 2.72050 102.48351 16671 ft 361 kts 246°
2026-05-05 14:42 2.71082 102.46058 16025 ft 355 kts 246°
2026-05-05 14:43 2.70130 102.43807 15392 ft 350 kts 246°
2026-05-05 14:43 2.69183 102.41578 14750 ft 346 kts 246°
2026-05-05 14:43 2.68246 102.39376 14133 ft 341 kts 246°
2026-05-05 14:43 2.67322 102.37204 13503 ft 338 kts 246°
2026-05-05 14:44 2.66387 102.35002 12678 ft 350 kts 246°
2026-05-05 14:44 2.65757 102.33513 12284 ft 352 kts 246°
2026-05-05 14:44 2.64807 102.31264 11818 ft 350 kts 247°
2026-05-05 14:44 2.63562 102.28317 11147 ft 343 kts 247°
2026-05-05 14:45 2.62935 102.26839 10623 ft 340 kts 247°
2026-05-05 14:45 2.61718 102.23970 10192 ft 331 kts 247°
2026-05-05 14:45 2.61120 102.22555 10115 ft 323 kts 247°
2026-05-05 14:45 2.59986 102.19877 9957 ft 308 kts 247°
2026-05-05 14:46 2.59435 102.18578 9812 ft 304 kts 247°
2026-05-05 14:46 2.58339 102.15989 9357 ft 300 kts 247°
2026-05-05 14:46 2.57801 102.14722 8989 ft 297 kts 247°
2026-05-05 14:46 2.56997 102.12832 8322 ft 295 kts 247°
2026-05-05 14:47 2.56198 102.10952 7681 ft 293 kts 247°
2026-05-05 14:47 2.55401 102.09072 7312 ft 292 kts 247°
2026-05-05 14:47 2.54609 102.07201 6896 ft 292 kts 247°
2026-05-05 14:47 2.53825 102.05348 6580 ft 288 kts 247°
2026-05-05 14:48 2.53043 102.03507 6184 ft 287 kts 247°
2026-05-05 14:48 2.52443 102.01623 5770 ft 284 kts 263°
2026-05-05 14:48 2.52422 101.99672 5109 ft 281 kts 272°
2026-05-05 14:48 2.52500 101.97722 4439 ft 281 kts 272°
2026-05-05 14:49 2.52585 101.95772 4033 ft 279 kts 272°
2026-05-05 14:49 2.52670 101.93851 3453 ft 274 kts 272°
2026-05-05 14:49 2.52753 101.92003 3212 ft 257 kts 272°
2026-05-05 14:49 2.52826 101.90291 3086 ft 239 kts 272°
2026-05-05 14:50 2.52894 101.88666 2972 ft 228 kts 272°
2026-05-05 14:50 2.52958 101.87116 2875 ft 218 kts 272°
2026-05-05 14:50 2.53010 101.85639 2778 ft 209 kts 271°
2026-05-05 14:50 2.53037 101.84208 2679 ft 203 kts 270°
2026-05-05 14:51 2.53089 101.82810 2592 ft 201 kts 280°
2026-05-05 14:51 2.53611 101.81533 2512 ft 197 kts 307°
2026-05-05 14:51 2.54612 101.80624 2524 ft 195 kts 327°
2026-05-05 14:51 2.55742 101.79871 2520 ft 195 kts 326°
2026-05-05 14:52 2.56855 101.79125 2514 ft 195 kts 326°
2026-05-05 14:52 2.57959 101.78385 2533 ft 184 kts 326°
2026-05-05 14:52 2.59002 101.77686 2514 ft 177 kts 326°
2026-05-05 14:52 2.60020 101.77004 2370 ft 175 kts 326°
2026-05-05 14:53 2.61024 101.76331 2195 ft 173 kts 326°
2026-05-05 14:53 2.62019 101.75664 1998 ft 170 kts 326°
2026-05-05 14:53 2.62981 101.75019 1759 ft 162 kts 326°
2026-05-05 14:53 2.63899 101.74404 1563 ft 157 kts 326°
2026-05-05 14:54 2.64798 101.73801 1359 ft 154 kts 326°
2026-05-05 14:54 2.65687 101.73205 1166 ft 153 kts 326°
2026-05-05 14:54 2.66571 101.72612 975 ft 152 kts 326°
2026-05-05 14:54 2.67449 101.72023 808 ft 152 kts 327°
2026-05-05 14:55 2.68326 101.71436 639 ft 151 kts 327°
2026-05-05 14:55 2.69195 101.70853 460 ft 150 kts 327°
2026-05-05 14:55 2.70062 101.70269 272 ft 150 kts 327°
2026-05-05 14:55 2.70928 101.69693 89 ft 149 kts 328°
2026-05-05 14:56 2.71754 101.69142 41 ft 131 kts 325°
2026-05-05 14:56 2.72373 101.68722 37 ft 83 kts 326°
2026-05-05 14:56 2.72711 101.68494 39 ft 33 kts 327°
2026-05-05 14:56 2.72909 101.68409 38 ft 25 kts 349°
2026-05-05 14:57 2.73055 101.68391 38 ft 20 kts 354°
2026-05-05 14:57 2.73189 101.68372 38 ft 17 kts 342°
2026-05-05 14:57 2.73289 101.68316 38 ft 15 kts 328°
2026-05-05 14:57 2.73366 101.68264 38 ft 13 kts 325°
2026-05-05 14:58 2.73436 101.68217 38 ft 12 kts 326°
2026-05-05 14:58 2.73502 101.68172 38 ft 12 kts 326°
2026-05-05 14:58 2.73590 101.68112 38 ft 18 kts 326°
2026-05-05 14:58 2.73672 101.68111 37 ft 13 kts 41°
2026-05-05 14:59 2.73715 101.68173 39 ft 10 kts 56°
2026-05-05 14:59 2.73745 101.68218 41 ft 6 kts 58°
2026-05-05 14:59 2.73775 101.68262 42 ft 9 kts 56°
2026-05-05 14:59 2.73817 101.68323 41 ft 12 kts 55°
2026-05-05 15:00 2.73869 101.68399 42 ft 14 kts 57°
2026-05-05 15:00 2.73908 101.68458 42 ft 16 kts 55°
2026-05-05 15:00 2.73975 101.68557 42 ft 7 kts 56°
2026-05-05 15:00 2.74010 101.68549 42 ft 6 kts 325°
2026-05-05 15:01 2.74042 101.68528 42 ft 4 kts 326°
2026-05-05 15:01 2.74059 101.68516 42 ft 2 kts 326°
2026-05-05 15:01 2.74061 101.68515 42 ft 0 kts 326°